Time,TemperatureF,DewpointF,PressureIn,WindDirection,WindDirectionDegrees,WindSpeedMPH,WindSpeedGustMPH,Humidity,HourlyPrecipIn,Conditions,Clouds,dailyrainin,SoftwareType,DateUTC
2013-03-14 00:12:00,26.0,18.0,30.31,WNW,301,0.0,2.0,70,0.00,,,0.08,,2013-03-14 04:12:00,
2013-03-14 00:22:00,26.0,18.0,30.31,WNW,301,0.0,1.0,71,0.00,,,0.08,,2013-03-14 04:22:00,
2013-03-14 00:32:00,25.0,18.0,30.31,WNW,298,0.0,1.0,73,0.00,,,0.08,,2013-03-14 04:32:00,
2013-03-14 00:42:00,25.0,18.0,30.31,WNW,298,0.0,1.0,73,0.00,,,0.08,,2013-03-14 04:42:00,
2013-03-14 00:52:00,25.0,18.0,30.31,WNW,286,0.0,2.0,73,0.00,,,0.08,,2013-03-14 04:52:00,
2013-03-14 01:02:00,25.0,18.0,30.31,WNW,284,0.0,2.0,74,0.00,,,0.08,,2013-03-14 05:02:00,
2013-03-14 01:12:00,25.0,18.0,30.31,WNW,284,0.0,2.0,74,0.00,,,0.08,,2013-03-14 05:12:00,
2013-03-14 01:22:00,25.0,18.0,30.30,WNW,284,0.0,1.0,74,0.00,,,0.08,,2013-03-14 05:22:00,
2013-03-14 01:33:00,25.0,19.0,30.30,WNW,284,0.0,1.0,77,0.00,,,0.08,,2013-03-14 05:33:00,
2013-03-14 01:42:00,25.0,19.0,30.30,WNW,284,0.0,1.0,77,0.00,,,0.08,,2013-03-14 05:42:00,
2013-03-14 01:52:00,24.0,18.0,30.30,WNW,284,0.0,2.0,78,0.00,,,0.08,,2013-03-14 05:52:00,
2013-03-14 02:02:00,24.0,18.0,30.30,WNW,284,0.0,1.0,79,0.00,,,0.08,,2013-03-14 06:02:00,
2013-03-14 02:12:00,24.0,18.0,30.30,WNW,284,0.0,1.0,79,0.00,,,0.08,,2013-03-14 06:12:00,
2013-03-14 02:22:00,24.0,18.0,30.30,West,281,0.0,2.0,79,0.00,,,0.08,,2013-03-14 06:22:00,
2013-03-14 02:32:00,24.0,19.0,30.30,West,261,0.0,2.0,80,0.00,,,0.08,,2013-03-14 06:32:00,
2013-03-14 02:42:00,24.0,19.0,30.30,West,261,0.0,2.0,80,0.00,,,0.08,,2013-03-14 06:42:00,
2013-03-14 02:52:00,24.0,19.0,30.31,WSW,253,0.0,2.0,80,0.00,,,0.08,,2013-03-14 06:52:00,
2013-03-14 03:02:00,24.0,18.0,30.31,NE,37,0.0,4.0,76,0.00,,,0.08,,2013-03-14 07:02:00,
2013-03-14 03:12:00,24.0,18.0,30.31,NE,37,0.0,4.0,76,0.00,,,0.08,,2013-03-14 07:12:00,
2013-03-14 03:22:00,24.0,18.0,30.31,West,265,0.0,3.0,79,0.00,,,0.08,,2013-03-14 07:22:00,
2013-03-14 03:32:00,24.0,18.0,30.31,NW,304,0.0,2.0,78,0.00,,,0.08,,2013-03-14 07:32:00,
2013-03-14 03:42:00,24.0,18.0,30.31,NW,304,0.0,2.0,78,0.00,,,0.08,,2013-03-14 07:42:00,
2013-03-14 03:52:00,24.0,18.0,30.31,WNW,285,0.0,2.0,79,0.00,,,0.08,,2013-03-14 07:52:00,
2013-03-14 04:02:00,24.0,18.0,30.31,WSW,246,0.0,3.0,79,0.00,,,0.08,,2013-03-14 08:02:00,
2013-03-14 04:12:00,24.0,18.0,30.31,WSW,246,0.0,3.0,79,0.00,,,0.08,,2013-03-14 08:12:00,
2013-03-14 04:22:00,24.0,18.0,30.31,West,275,0.0,2.0,79,0.00,,,0.08,,2013-03-14 08:22:00,
2013-03-14 04:32:00,25.0,19.0,30.30,WSW,249,0.0,2.0,79,0.00,,,0.08,,2013-03-14 08:32:00,
2013-03-14 04:41:00,25.0,19.0,30.30,WSW,249,0.0,2.0,79,0.00,,,0.08,,2013-03-14 08:41:00,
2013-03-14 04:52:00,25.0,19.0,30.30,WSW,249,0.0,2.0,79,0.00,,,0.08,,2013-03-14 08:52:00,
2013-03-14 05:01:00,24.0,19.0,30.29,WSW,258,0.0,2.0,81,0.00,,,0.08,,2013-03-14 09:01:00,
2013-03-14 05:12:00,24.0,19.0,30.29,WSW,258,0.0,2.0,81,0.00,,,0.08,,2013-03-14 09:12:00,
2013-03-14 05:22:00,24.0,19.0,30.29,WSW,242,0.0,2.0,82,0.00,,,0.08,,2013-03-14 09:22:00,
2013-03-14 05:32:00,24.0,19.0,30.29,SW,236,1.0,3.0,82,0.00,,,0.08,,2013-03-14 09:32:00,
2013-03-14 05:42:00,24.0,19.0,30.29,SW,236,1.0,3.0,82,0.00,,,0.08,,2013-03-14 09:42:00,
2013-03-14 05:52:00,24.0,19.0,30.29,SW,234,1.0,3.0,82,0.00,,,0.08,,2013-03-14 09:52:00,
2013-03-14 06:02:00,24.0,19.0,30.29,WSW,240,1.0,3.0,81,0.00,,,0.08,,2013-03-14 10:02:00,
2013-03-14 06:12:00,24.0,19.0,30.29,WSW,240,1.0,3.0,81,0.00,,,0.08,,2013-03-14 10:12:00,
2013-03-14 06:22:00,24.0,19.0,30.29,WSW,240,1.0,3.0,81,0.00,,,0.08,,2013-03-14 10:22:00,
2013-03-14 06:32:00,24.0,19.0,30.29,SW,233,0.0,3.0,81,0.00,,,0.08,,2013-03-14 10:32:00,
2013-03-14 06:42:00,24.0,19.0,30.29,SW,233,0.0,3.0,81,0.00,,,0.08,,2013-03-14 10:42:00,
2013-03-14 06:52:00,24.0,19.0,30.29,SW,236,0.0,4.0,81,0.00,,,0.08,,2013-03-14 10:52:00,
2013-03-14 07:02:00,24.0,19.0,30.29,SW,230,1.0,3.0,81,0.00,,,0.08,,2013-03-14 11:02:00,
2013-03-14 07:12:00,24.0,19.0,30.29,SW,230,1.0,3.0,81,0.00,,,0.08,,2013-03-14 11:12:00,
2013-03-14 07:22:00,24.0,19.0,30.29,SW,229,1.0,4.0,81,0.00,,,0.08,,2013-03-14 11:22:00,
2013-03-14 07:33:00,24.0,19.0,30.29,WSW,243,0.0,4.0,81,0.00,,,0.08,,2013-03-14 11:33:00,
2013-03-14 07:42:00,24.0,19.0,30.29,WSW,243,0.0,4.0,81,0.00,,,0.08,,2013-03-14 11:42:00,
2013-03-14 07:52:00,24.0,19.0,30.29,WSW,242,0.0,4.0,81,0.00,,,0.08,,2013-03-14 11:52:00,
2013-03-14 08:02:00,24.0,19.0,30.29,WSW,248,0.0,2.0,81,0.00,,,0.08,,2013-03-14 12:02:00,
2013-03-14 08:12:00,24.0,19.0,30.29,WSW,248,0.0,2.0,81,0.00,,,0.08,,2013-03-14 12:12:00,
2013-03-14 08:22:00,24.0,19.0,30.29,WSW,248,0.0,2.0,81,0.00,,,0.08,,2013-03-14 12:22:00,
2013-03-14 08:33:00,24.0,20.0,30.29,WSW,243,0.0,3.0,84,0.00,,,0.08,,2013-03-14 12:33:00,
2013-03-14 08:42:00,24.0,20.0,30.29,WSW,243,0.0,3.0,84,0.00,,,0.08,,2013-03-14 12:42:00,
2013-03-14 08:52:00,24.0,20.0,30.30,WSW,238,1.0,2.0,84,0.00,,,0.08,,2013-03-14 12:52:00,
2013-03-14 09:02:00,26.0,21.0,30.30,SW,233,0.0,4.0,82,0.00,,,0.08,,2013-03-14 13:02:00,
2013-03-14 09:12:00,26.0,21.0,30.30,SW,233,0.0,4.0,82,0.00,,,0.08,,2013-03-14 13:12:00,
2013-03-14 09:22:00,27.0,22.0,30.31,SW,236,1.0,3.0,80,0.00,,,0.08,,2013-03-14 13:22:00,
2013-03-14 09:32:00,28.0,22.0,30.32,SSW,205,0.0,3.0,78,0.00,,,0.08,,2013-03-14 13:32:00,
2013-03-14 09:42:00,28.0,22.0,30.32,SSW,205,0.0,3.0,78,0.00,,,0.08,,2013-03-14 13:42:00,
2013-03-14 09:52:00,29.0,23.0,30.32,SW,222,1.0,3.0,77,0.00,,,0.08,,2013-03-14 13:52:00,
2013-03-14 10:02:00,29.0,22.0,30.32,WSW,255,1.0,4.0,76,0.00,,,0.08,,2013-03-14 14:02:00,
2013-03-14 10:12:00,29.0,22.0,30.32,WSW,255,1.0,4.0,76,0.00,,,0.08,,2013-03-14 14:12:00,
2013-03-14 10:22:00,30.0,23.0,30.32,West,263,1.0,4.0,75,0.00,,,0.08,,2013-03-14 14:22:00,
2013-03-14 10:32:00,31.0,24.0,30.33,SW,229,1.0,3.0,74,0.00,,,0.08,,2013-03-14 14:32:00,
2013-03-14 10:42:00,31.0,24.0,30.33,SW,229,1.0,3.0,74,0.00,,,0.08,,2013-03-14 14:42:00,
2013-03-14 10:52:00,32.0,25.0,30.33,WSW,244,2.0,5.0,74,0.00,,,0.08,,2013-03-14 14:52:00,
2013-03-14 11:02:00,33.0,25.0,30.32,WSW,253,0.0,3.0,73,0.00,,,0.08,,2013-03-14 15:02:00,
2013-03-14 11:12:00,33.0,25.0,30.32,WSW,253,0.0,3.0,73,0.00,,,0.08,,2013-03-14 15:12:00,
2013-03-14 11:22:00,33.0,25.0,30.32,SW,225,1.0,4.0,71,0.00,,,0.08,,2013-03-14 15:22:00,
2013-03-14 11:33:00,33.0,25.0,30.32,WSW,238,1.0,3.0,71,0.00,,,0.08,,2013-03-14 15:33:00,
2013-03-14 11:52:00,34.0,25.0,30.31,WSW,237,1.0,4.0,70,0.00,,,0.08,,2013-03-14 15:52:00,
2013-03-14 12:03:00,35.0,25.0,30.31,NW,325,0.0,4.0,67,0.00,,,0.08,,2013-03-14 16:03:00,
2013-03-14 12:12:00,35.0,25.0,30.31,NW,325,0.0,4.0,67,0.00,,,0.08,,2013-03-14 16:12:00,
2013-03-14 12:22:00,35.0,24.0,30.31,WSW,253,1.0,4.0,65,0.00,,,0.05,,2013-03-14 16:22:00,
2013-03-14 12:32:00,36.0,25.0,30.30,WSW,244,0.0,4.0,65,0.00,,,0.05,,2013-03-14 16:32:00,
2013-03-14 12:42:00,36.0,25.0,30.30,WSW,244,0.0,4.0,65,0.00,,,0.05,,2013-03-14 16:42:00,
2013-03-14 12:52:00,37.0,24.0,30.29,SW,222,3.0,5.0,58,0.00,,,0.05,,2013-03-14 16:52:00,
2013-03-14 13:02:00,37.0,25.0,30.29,NW,320,2.0,6.0,61,0.00,,,0.05,,2013-03-14 17:02:00,
2013-03-14 13:12:00,37.0,25.0,30.29,NW,320,2.0,6.0,61,0.00,,,0.05,,2013-03-14 17:12:00,
2013-03-14 13:23:00,38.0,24.0,30.29,West,260,1.0,5.0,57,0.00,,,0.04,,2013-03-14 17:23:00,
2013-03-14 13:32:00,39.0,26.0,30.28,SSW,195,1.0,6.0,59,0.00,,,0.04,,2013-03-14 17:32:00,
2013-03-14 13:42:00,39.0,26.0,30.28,SSW,195,1.0,6.0,59,0.00,,,0.04,,2013-03-14 17:42:00,
2013-03-14 13:52:00,40.0,25.0,30.28,SW,226,2.0,6.0,55,0.00,,,0.04,,2013-03-14 17:52:00,
2013-03-14 14:03:00,40.0,26.0,30.27,WSW,242,2.0,6.0,56,0.00,,,0.04,,2013-03-14 18:03:00,
2013-03-14 14:12:00,40.0,26.0,30.27,WSW,242,2.0,6.0,56,0.00,,,0.04,,2013-03-14 18:12:00,
2013-03-14 14:22:00,41.0,26.0,30.27,South,182,2.0,6.0,54,0.00,,,0.03,,2013-03-14 18:22:00,
2013-03-14 14:33:00,41.0,25.0,30.26,SW,223,2.0,6.0,52,0.00,,,0.03,,2013-03-14 18:33:00,
2013-03-14 14:43:00,41.0,25.0,30.26,SW,223,2.0,6.0,52,0.00,,,0.03,,2013-03-14 18:43:00,
2013-03-14 14:52:00,42.0,25.0,30.25,South,190,3.0,8.0,50,0.00,,,0.03,,2013-03-14 18:52:00,
2013-03-14 15:02:00,42.0,24.0,30.24,SW,235,1.0,7.0,49,0.00,,,0.03,,2013-03-14 19:02:00,
2013-03-14 15:12:00,42.0,24.0,30.24,SW,235,1.0,7.0,49,0.00,,,0.03,,2013-03-14 19:12:00,
2013-03-14 15:22:00,42.0,23.0,30.24,SW,223,1.0,5.0,46,0.00,,,0.01,,2013-03-14 19:22:00,
2013-03-14 15:32:00,41.0,23.0,30.23,WSW,255,3.0,7.0,49,0.00,,,0.01,,2013-03-14 19:32:00,
2013-03-14 15:42:00,41.0,23.0,30.23,WSW,255,3.0,7.0,49,0.00,,,0.01,,2013-03-14 19:42:00,
2013-03-14 15:52:00,42.0,24.0,30.23,WSW,238,1.0,7.0,48,0.00,,,0.01,,2013-03-14 19:52:00,
2013-03-14 16:02:00,43.0,25.0,30.22,NW,326,2.0,6.0,48,0.00,,,0.01,,2013-03-14 20:02:00,
2013-03-14 16:11:00,43.0,25.0,30.22,NW,326,2.0,6.0,48,0.00,,,0.01,,2013-03-14 20:11:00,
2013-03-14 16:22:00,43.0,23.0,30.22,WSW,248,1.0,5.0,45,0.00,,,0.00,,2013-03-14 20:22:00,
2013-03-14 16:32:00,43.0,24.0,30.21,SW,218,2.0,6.0,46,0.00,,,0.00,,2013-03-14 20:32:00,
2013-03-14 16:42:00,43.0,24.0,30.21,SW,218,2.0,6.0,46,0.00,,,0.00,,2013-03-14 20:42:00,
2013-03-14 16:52:00,44.0,25.0,30.21,West,271,2.0,6.0,47,0.00,,,0.00,,2013-03-14 20:52:00,
2013-03-14 17:02:00,44.0,23.0,30.21,WSW,246,2.0,9.0,44,0.00,,,0.00,,2013-03-14 21:02:00,
2013-03-14 17:12:00,44.0,23.0,30.21,WSW,246,2.0,9.0,44,0.00,,,0.00,,2013-03-14 21:12:00,
2013-03-14 17:22:00,44.0,27.0,30.20,WSW,240,3.0,6.0,51,0.00,,,0.00,,2013-03-14 21:22:00,
2013-03-14 17:32:00,44.0,28.0,30.19,WSW,252,3.0,7.0,52,0.00,,,0.00,,2013-03-14 21:32:00,
2013-03-14 17:43:00,44.0,28.0,30.19,WSW,252,3.0,7.0,52,0.00,,,0.00,,2013-03-14 21:43:00,
2013-03-14 17:52:00,43.0,28.0,30.19,SW,223,3.0,7.0,54,0.00,,,0.00,,2013-03-14 21:52:00,
2013-03-14 18:03:00,41.0,24.0,30.19,SW,225,2.0,6.0,51,0.00,,,0.00,,2013-03-14 22:03:00,
2013-03-14 18:12:00,41.0,24.0,30.19,SW,225,2.0,6.0,51,0.00,,,0.00,,2013-03-14 22:12:00,
2013-03-14 18:23:00,42.0,25.0,30.19,SW,234,0.0,4.0,51,0.00,,,0.00,,2013-03-14 22:23:00,
2013-03-14 18:33:00,42.0,25.0,30.18,WSW,242,2.0,5.0,50,0.00,,,0.00,,2013-03-14 22:33:00,
2013-03-14 18:42:00,42.0,25.0,30.18,WSW,242,2.0,5.0,50,0.00,,,0.00,,2013-03-14 22:42:00,
2013-03-14 18:52:00,42.0,25.0,30.18,NNW,331,2.0,5.0,50,0.00,,,0.00,,2013-03-14 22:52:00,
2013-03-14 19:02:00,40.0,24.0,30.18,WSW,251,0.0,4.0,52,0.00,,,0.00,,2013-03-14 23:02:00,
2013-03-14 19:12:00,40.0,24.0,30.18,WSW,251,0.0,4.0,52,0.00,,,0.00,,2013-03-14 23:12:00,
2013-03-14 19:22:00,39.0,25.0,30.18,West,259,0.0,3.0,56,0.00,,,0.00,,2013-03-14 23:22:00,
2013-03-14 19:33:00,38.0,24.0,30.20,NW,321,0.0,4.0,56,0.00,,,0.00,,2013-03-14 23:33:00,
2013-03-14 19:42:00,38.0,24.0,30.20,NW,321,0.0,4.0,56,0.00,,,0.00,,2013-03-14 23:42:00,
2013-03-14 19:53:00,38.0,24.0,30.20,NNE,16,1.0,4.0,56,0.00,,,0.00,,2013-03-14 23:53:00,
2013-03-14 20:02:00,38.0,27.0,30.20,North,10,1.0,5.0,63,0.00,,,0.00,,2013-03-15 00:02:00,
2013-03-14 20:12:00,38.0,29.0,30.20,WSW,242,0.0,3.0,69,0.00,,,0.00,,2013-03-15 00:12:00,
2013-03-14 20:22:00,38.0,29.0,30.20,WSW,242,0.0,3.0,69,0.00,,,0.00,,2013-03-15 00:22:00,
2013-03-14 20:32:00,37.0,29.0,30.19,WSW,252,0.0,3.0,72,0.00,,,0.00,,2013-03-15 00:32:00,
2013-03-14 20:42:00,37.0,29.0,30.19,WSW,252,0.0,3.0,72,0.00,,,0.00,,2013-03-15 00:42:00,
2013-03-14 20:52:00,36.0,29.0,30.18,SW,221,2.0,5.0,74,0.00,,,0.00,,2013-03-15 00:52:00,
2013-03-14 21:02:00,36.0,29.0,30.18,West,263,1.0,4.0,75,0.00,,,0.00,,2013-03-15 01:02:00,
2013-03-14 21:12:00,36.0,29.0,30.18,West,263,1.0,4.0,75,0.00,,,0.00,,2013-03-15 01:12:00,
2013-03-14 21:22:00,36.0,29.0,30.16,WSW,240,1.0,5.0,76,0.00,,,0.00,,2013-03-15 01:22:00,
2013-03-14 21:32:00,36.0,29.0,30.15,SW,232,0.0,4.0,77,0.00,,,0.00,,2013-03-15 01:32:00,
2013-03-14 21:42:00,36.0,29.0,30.15,SW,232,0.0,4.0,77,0.00,,,0.00,,2013-03-15 01:42:00,
2013-03-14 21:52:00,35.0,29.0,30.14,SW,223,1.0,3.0,80,0.00,,,0.00,,2013-03-15 01:52:00,
2013-03-14 22:02:00,34.0,29.0,30.14,SW,227,1.0,3.0,81,0.00,,,0.00,,2013-03-15 02:02:00,
2013-03-14 22:12:00,34.0,29.0,30.14,SW,227,1.0,3.0,81,0.00,,,0.00,,2013-03-15 02:12:00,
2013-03-14 22:22:00,34.0,28.0,30.14,WSW,239,1.0,4.0,80,0.00,,,0.00,,2013-03-15 02:22:00,
2013-03-14 22:32:00,34.0,28.0,30.14,WSW,239,1.0,4.0,80,0.00,,,0.00,,2013-03-15 02:32:00,
2013-03-14 22:42:00,34.0,28.0,30.14,WSW,239,1.0,4.0,80,0.00,,,0.00,,2013-03-15 02:42:00,
2013-03-14 22:52:00,34.0,29.0,30.14,SW,219,1.0,5.0,81,0.00,,,0.00,,2013-03-15 02:52:00,
2013-03-14 23:02:00,34.0,29.0,30.14,SW,235,2.0,5.0,81,0.00,,,0.00,,2013-03-15 03:02:00,
2013-03-14 23:12:00,34.0,29.0,30.14,SW,235,2.0,5.0,81,0.00,,,0.00,,2013-03-15 03:12:00,
2013-03-14 23:22:00,35.0,30.0,30.14,SW,236,3.0,7.0,82,0.00,,,0.00,,2013-03-15 03:22:00,
2013-03-14 23:33:00,34.0,30.0,30.14,SW,220,2.0,6.0,84,0.00,,,0.00,,2013-03-15 03:33:00,
2013-03-14 23:43:00,34.0,30.0,30.14,SW,220,2.0,6.0,84,0.00,,,0.00,,2013-03-15 03:43:00,
2013-03-14 23:52:00,34.0,30.0,30.13,SW,226,2.0,6.0,86,0.00,,,0.00,,2013-03-15 03:52:00,